Wind_Speed
44 47 49 54 65 78 89 104 120 109 96 97 88 87 80 65 79 73 60 62 57 57 47 35 37 34 33 38 44 42 46 48 49 53 49 45 42 42 39 39 37 37 40
38 39 43 52 61 73 82 98 120 112 105 112 105 93 87 89 68 61 65 72 54 59 54 43 45 44 40 33 40 42 41 50 52 53 51 47 44 45 44 39 38 38 39
29 33 37 44 56 70 81 104 122 120 124 117 112 101 90 96 96 99 88 80 66 52 54 56 50 50 49 37 40 44 39 52 55 54 51 49 48 46 44 43 43 41 40
27 30 34 42 57 69 82 109 120 129 125 114 113 110 98 103 89 77 93 74 72 59 62 69 60 56 59 44 43 43 42 46 55 57 54 53 53 50 47 42 42 42 38
27 31 35 46 58 69 84 115 127 125 119 112 117 114 105 99 92 82 72 83 72 80 69 76 75 65 60 49 42 47 47 41 52 55 57 55 53 51 48 49 43 44 39
29 34 38 49 62 74 91 109 126 121 122 123 119 111 109 98 101 94 90 86 84 86 81 81 76 73 67 60 51 51 51 42 44 51 54 56 58 57 56 52 50 47 40
31 37 42 51 62 73 97 120 128 126 121 118 115 108 102 100 107 98 95 93 101 94 93 81 87 88 82 70 64 59 60 53 45 47 50 49 61 61 63 56 56 54 49
34 38 44 53 63 75 95 116 131 126 122 120 116 108 103 103 104 103 111 106 99 97 89 91 84 88 88 77 68 59 58 58 57 51 50 54 57 65 60 60 51 59 55
36 41 48 56 63 79 97 119 132 128 126 122 116 116 113 104 106 112 116 102 106 95 100 90 84 84 81 79 76 61 57 56 56 54 49 51 55 63 61 55 48 52 50
40 45 53 60 68 83 98 114 130 134 133 128 122 121 110 108 110 115 109 106 106 98 102 96 94 85 85 77 78 76 68 60 57 53 46 52 56 64 67 58 52 49 50
44 49 58 67 76 86 101 116 128 134 132 125 121 114 118 109 114 118 107 105 104 102 100 99 99 97 96 79 76 76 73 69 61 64 64 58 57 54 59 65 68 67 64
48 55 61 71 82 93 102 111 127 130 127 124 123 118 118 117 122 117 115 112 107 105 102 97 102 102 96 92 81 83 77 79 71 67 70 68 56 45 50 52 55 58 60
50 61 66 73 83 95 105 113 126 130 125 121 123 128 123 119 126 119 117 107 104 104 107 100 97 96 102 95 97 89 86 86 86 76 74 70 64 60 61 57 48 63 59
54 60 70 81 87 97 107 119 124 123 125 128 131 131 124 122 127 123 123 118 111 109 107 98 99 98 98 98 95 94 92 92 94 88 84 79 73 67 67 65 60 60 59
57 64 72 81 92 100 106 116 124 129 129 131 138 135 128 131 126 125 127 124 115 113 117 110 106 104 103 104 104 103 96 93 94 95 97 90 79 73 69 74 67 67 70
57 65 71 82 91 103 111 116 123 127 131 134 139 139 138 134 134 127 132 129 121 122 117 116 118 111 109 106 99 91 95 89 91 89 96 96 82 82 78 77 78 75 75
49 62 71 77 89 98 113 122 127 132 136 141 136 137 137 132 131 135 137 139 132 128 122 121 119 113 111 111 102 100 98 98 97 92 96 100 94 88 85 85 88 82 84
37 49 64 75 82 91 105 121 132 135 135 134 134 137 141 135 131 133 137 138 134 133 128 128 125 129 120 118 116 115 109 105 102 102 99 100 99 101 93 92 93 93 91
31 39 51 64 78 85 95 108 130 136 136 137 139 143 139 133 132 136 134 134 132 126 126 125 127 131 130 128 125 126 118 112 110 108 108 108 104 103 105 103 97 95 97
29 32 39 50 63 77 86 94 105 135 136 134 137 135 143 138 136 134 134 131 130 128 124 127 130 131 133 130 126 125 129 122 123 119 116 111 114 113 111 111 104 102 101
30 31 33 40 49 60 71 86 95 103 116 128 137 138 135 140 136 132 131 128 129 132 131 125 130 135 135 137 140 140 132 129 127 126 128 124 122 118 116 119 117 112 110
28 31 34 35 39 46 54 64 73 91 101 106 115 121 135 134 140 139 136 134 132 132 136 135 133 140 142 140 136 139 140 142 138 132 133 132 134 129 128 126 125 123 117
26 28 31 35 38 40 44 49 56 66 75 85 96 103 112 124 132 136 139 142 141 140 137 135 141 143 144 146 147 141 139 136 140 141 140 132 135 133 132 132 132 132 129
26 26 28 31 35 38 40 42 46 51 57 64 73 81 91 102 112 120 124 129 134 139 141 146 147 145 148 147 143 147 144 142 144 146 142 140 138 134 136 138 135 135 137
27 26 27 29 32 34 36 39 42 45 47 51 56 63 70 79 88 97 107 116 120 127 132 137 140 142 143 146 149 147 144 142 142 145 146 150 149 147 144 140 142 142 142
28 27 27 28 30 32 33 35 38 40 44 47 50 53 57 63 70 78 86 93 101 110 118 123 128 132 135 137 140 142 146 148 151 152 151 149 148 150 151 149 148 149 148
Wind_Direction
254 245 236 226 213 213 207 200 187 195 198 192 194 202 202 208 214 230 227 231 237 233 239 247 251 258 271 252 248 250 240 225 232 236 233 233 232 233 232 234 242 241 237
251 241 231 221 211 210 207 198 189 193 187 188 194 196 202 206 204 206 229 228 227 229 233 242 246 249 259 257 249 251 248 224 226 233 234 235 234 235 238 241 243 246 242
244 234 225 218 207 206 202 192 186 184 185 187 193 193 196 200 200 208 221 215 224 224 233 235 244 245 252 246 249 250 251 231 230 234 236 235 236 237 239 240 242 242 240
238 223 215 207 201 201 197 189 185 182 183 188 194 193 197 197 199 204 204 215 213 222 233 229 240 248 245 249 247 246 248 239 231 233 238 238 237 239 242 241 238 234 236
228 216 204 199 196 196 196 187 186 184 182 186 192 199 200 199 204 203 204 213 218 218 222 227 234 240 237 241 241 244 242 240 235 235 239 239 235 240 240 241 238 233 234
219 207 195 194 194 193 192 188 188 184 184 188 192 195 200 204 210 213 210 207 212 215 220 219 233 232 237 241 243 249 246 243 238 240 239 239 235 237 237 240 237 229 236
219 206 196 195 194 192 193 185 185 189 187 191 195 197 199 204 211 213 209 211 211 214 219 225 230 222 236 237 241 242 247 243 243 239 243 242 237 235 234 241 245 238 235
221 213 201 197 195 192 189 189 190 192 194 196 197 198 200 206 212 214 210 210 210 214 218 215 216 219 229 234 236 238 243 245 246 248 241 241 240 233 237 242 250 240 239
223 214 203 198 194 190 189 188 191 195 199 198 197 202 203 207 209 213 211 212 213 214 212 212 217 222 222 228 232 232 235 242 250 252 248 248 248 237 236 242 254 233 240
219 215 202 196 191 189 190 191 191 194 197 199 202 201 205 208 210 213 212 213 214 213 217 217 220 220 225 224 235 241 236 237 243 252 253 252 250 247 243 245 242 249 248
212 212 205 199 194 190 190 191 193 194 197 202 200 201 205 208 208 211 210 213 214 215 218 220 223 225 227 231 235 227 232 237 241 247 254 256 253 247 244 246 249 249 252
211 207 206 201 196 193 193 194 194 198 201 201 202 202 207 209 209 212 212 214 214 218 220 221 223 225 227 225 226 222 238 235 241 241 246 248 251 248 252 246 246 248 251
221 209 206 206 200 195 197 197 197 199 201 203 202 205 211 209 209 215 214 214 216 220 222 224 225 228 225 227 231 234 234 234 237 241 244 246 246 247 249 255 252 255 244
222 218 211 208 205 202 200 201 201 203 203 202 205 210 213 213 214 217 216 217 218 220 222 223 229 228 228 228 233 233 236 238 243 240 243 247 249 249 248 248 249 254 254
221 221 218 214 211 206 205 205 206 204 203 205 208 212 214 215 217 219 218 218 221 224 225 226 229 231 233 234 234 239 235 237 240 239 240 244 244 246 244 246 245 251 251
224 221 222 219 217 213 208 207 207 205 206 208 212 213 215 218 217 220 221 222 224 227 226 226 231 231 231 233 234 229 231 235 236 238 239 240 242 246 245 245 247 257 253
233 226 222 222 221 219 215 210 208 206 211 211 215 217 218 220 221 221 222 221 227 228 228 230 230 229 231 232 231 231 237 237 238 240 239 238 240 244 246 245 251 255 254
242 233 228 223 222 222 220 216 214 215 215 217 219 220 221 223 225 224 224 225 229 232 233 233 231 230 232 232 232 232 238 239 239 239 240 240 244 249 250 251 252 255 256
253 242 233 228 225 223 223 222 219 218 219 220 222 222 223 225 227 227 229 230 231 232 233 233 232 232 231 235 235 236 237 238 240 245 244 245 244 247 251 251 255 257 256
260 251 243 235 230 228 225 223 225 222 222 224 226 227 227 228 229 231 232 235 235 235 235 234 233 233 234 234 237 238 242 242 241 244 246 248 246 247 251 252 253 256 257
272 261 249 243 237 234 231 230 226 224 227 230 232 233 236 233 232 233 234 236 238 238 238 236 235 236 236 238 240 242 242 243 246 246 247 246 251 251 250 252 255 256 257
275 267 260 252 245 240 237 235 233 232 232 231 230 232 234 236 234 236 237 238 239 240 241 240 240 238 239 239 243 244 248 247 248 249 250 248 249 252 253 252 253 256 258
285 271 260 257 254 249 243 240 238 236 236 237 237 236 234 234 236 238 240 240 240 241 242 241 239 240 242 242 244 245 248 249 249 250 249 251 251 253 254 252 252 255 257
295 282 271 260 255 253 252 249 245 240 239 238 238 238 238 239 239 238 238 238 239 240 241 242 243 243 244 245 245 246 247 248 248 248 248 250 250 250 252 253 255 255 255
303 290 278 269 262 258 254 251 250 249 246 241 238 238 238 238 240 241 242 242 243 242 242 242 243 244 245 245 246 247 247 246 247 246 249 250 251 253 252 254 254 256 257
309 299 287 278 270 265 260 256 254 253 249 247 246 243 240 239 239 240 241 241 242 243 244 244 245 244 244 245 245 246 246 246 247 249 251 251 253 254 255 256 256 257 258
Height
10305 10308 10316 10326 10338 10353 10374 10402 10430 10456 10483 10503 10529 10549 10563 10573 10589 10595 10609 10624 10631 10633 10637 10641 10649 10651 10656 10658 10661 10665 10670 10676 10680 10685 10689 10695 10702 10706 10710 10714 10718 10722 10726
10292 10295 10301 10309 10322 10336 10354 10380 10409 10431 10454 10480 10508 10527 10542 10558 10566 10581 10593 10606 10618 10621 10624 10628 10638 10641 10647 10651 10653 10657 10662 10666 10669 10674 10679 10686 10690 10694 10701 10707 10710 10713 10717
10284 10287 10291 10301 10311 10322 10338 10362 10388 10412 10436 10462 10485 10510 10521 10537 10553 10565 10579 10591 10603 10607 10610 10616 10622 10629 10637 10641 10645 10647 10652 10656 10660 10665 10670 10676 10681 10686 10693 10698 10702 10705 10708
10276 10280 10285 10294 10305 10316 10331 10355 10380 10400 10417 10444 10471 10490 10503 10525 10537 10546 10554 10572 10583 10593 10599 10601 10607 10618 10626 10631 10634 10637 10641 10646 10649 10654 10658 10664 10670 10676 10683 10690 10693 10695 10699
10271 10274 10282 10289 10297 10310 10327 10349 10371 10390 10407 10431 10452 10468 10488 10505 10518 10531 10544 10557 10566 10578 10585 10589 10596 10605 10612 10620 10623 10627 10632 10637 10641 10644 10650 10655 10661 10666 10672 10676 10683 10687 10690
10269 10272 10278 10287 10293 10299 10319 10354 10375 10391 10399 10412 10430 10454 10476 10491 10504 10514 10530 10534 10545 10556 10568 10573 10582 10590 10599 10607 10612 10615 10623 10628 10632 10637 10642 10645 10651 10656 10658 10665 10672 10678 10683
10269 10271 10276 10283 10292 10303 10314 10329 10359 10370 10386 10406 10422 10441 10460 10477 10486 10496 10507 10515 10519 10533 10542 10555 10565 10574 10583 10592 10600 10605 10611 10615 10622 10627 10634 10639 10641 10644 10647 10657 10663 10668 10671
10266 10270 10276 10283 10289 10298 10308 10333 10346 10361 10380 10393 10411 10429 10445 10459 10469 10479 10484 10490 10504 10516 10529 10537 10548 10557 10567 10577 10586 10592 10600 10604 10611 10617 10623 10625 10629 10632 10639 10645 10649 10656 10662
10262 10267 10271 10279 10288 10294 10305 10319 10337 10358 10373 10387 10402 10416 10430 10442 10448 10459 10466 10476 10489 10502 10511 10518 10529 10540 10551 10561 10571 10578 10588 10594 10600 10605 10609 10612 10616 10622 10625 10632 10640 10645 10652
10258 10263 10268 10275 10283 10294 10308 10321 10335 10348 10359 10375 10387 10400 10413 10420 10432 10442 10451 10461 10479 10487 10499 10508 10517 10525 10537 10543 10553 10564 10573 10580 10589 10594 10597 10601 10604 10608 10613 10621 10627 10635 10638
10253 10258 10265 10270 10278 10288 10300 10309 10322 10338 10349 10359 10376 10385 10398 10407 10416 10424 10435 10450 10464 10473 10480 10491 10503 10512 10522 10530 10537 10547 10556 10568 10575 10578 10584 10588 10592 10594 10599 10606 10613 10620 10626
10247 10253 10259 10265 10273 10281 10292 10304 10318 10331 10341 10348 10361 10373 10382 10387 10397 10410 10421 10433 10445 10457 10468 10477 10488 10497 10505 10515 10522 10532 10543 10551 10559 10562 10568 10575 10579 10581 10586 10592 10598 10604 10609
10237 10246 10253 10260 10269 10274 10282 10293 10298 10306 10320 10337 10348 10353 10362 10371 10383 10394 10407 10420 10430 10442 10453 10462 10469 10480 10490 10499 10509 10517 10525 10533 10541 10549 10552 10559 10565 10570 10573 10578 10583 10591 10593
10229 10235 10243 10251 10259 10268 10275 10283 10290 10302 10315 10323 10334 10340 10347 10360 10369 10379 10390 10402 10412 10424 10436 10445 10455 10466 10473 10481 10491 10501 10508 10515 10522 10531 10536 10542 10549 10554 10558 10563 10567 10572 10575
10221 10225 10231 10239 10248 10255 10264 10273 10281 10290 10299 10312 10315 10324 10334 10344 10355 10364 10373 10383 10392 10406 10421 10430 10438 10446 10455 10466 10474 10480 10489 10498 10505 10513 10520 10527 10533 10538 10543 10548 10549 10552 10556
10210 10214 10218 10224 10233 10242 10249 10256 10266 10276 10287 10292 10299 10309 10320 10323 10338 10345 10356 10366 10378 10389 10401 10411 10422 10431 10438 10447 10455 10463 10471 10479 10487 10493 10502 10509 10515 10520 10525 10528 10532 10536 10538
10200 10203 10205 10209 10216 10224 10233 10241 10249 10256 10266 10269 10281 10292 10299 10312 10321 10331 10343 10351 10362 10372 10383 10393 10403 10411 10420 10429 10437 10445 10453 10461 10466 10473 10481 10489 10495 10501 10506 10509 10514 10516 10518
10187 10189 10193 10196 10201 10208 10216 10225 10234 10240 10248 10260 10266 10276 10286 10296 10307 10317 10326 10337 10345 10355 10365 10373 10381 10391 10398 10408 10414 10424 10433 10440 10446 10453 10459 10466 10472 10478 10486 10491 10493 10496 10498
10176 10177 10180 10182 10187 10191 10198 10205 10215 10222 10230 10238 10247 10260 10268 10277 10289 10296 10304 10314 10326 10334 10341 10350 10360 10367 10377 10385 10394 10402 10409 10416 10423 10429 10435 10442 10449 10456 10463 10469 10471 10474 10477
10165 10165 10167 10169 10173 10177 10181 10186 10193 10203 10211 10221 10230 10238 10249 10259 10267 10274 10283 10293 10302 10311 10318 10327 10335 10344 10353 10362 10370 10377 10384 10391 10399 10405 10411 10416 10426 10433 10439 10444 10447 10451 10455
10151 10152 10154 10155 10158 10161 10166 10171 10175 10182 10192 10200 10209 10215 10224 10234 10243 10252 10261 10269 10276 10283 10292 10301 10310 10318 10329 10338 10343 10351 10356 10364 10371 10377 10386 10393 10400 10407 10412 10418 10422 10427 10430
10141 10138 10137 10139 10141 10144 10148 10152 10157 10163 10169 10173 10180 10187 10196 10203 10216 10226 10236 10244 10249 10256 10263 10272 10280 10289 10302 10310 10315 10324 10328 10336 10344 10353 10361 10366 10374 10380 10386 10393 10396 10401 10404
10129 10128 10127 10125 10125 10127 10130 10133 10136 10140 10144 10150 10157 10164 10170 10177 10185 10194 10203 10210 10218 10226 10232 10239 10251 10259 10267 10277 10285 10293 10298 10306 10315 10322 10329 10336 10344 10349 10355 10361 10367 10372 10376
10118 10115 10114 10113 10113 10113 10114 10116 10118 10122 10126 10130 10134 10138 10145 10152 10158 10162 10168 10176 10181 10189 10198 10206 10215 10223 10233 10243 10251 10260 10268 10276 10282 10288 10298 10303 10309 10316 10323 10328 10333 10339 10344
10106 10104 10103 10101 10100 10100 10100 10101 10102 10103 10106 10110 10114 10118 10121 10125 10128 10133 10140 10148 10154 10162 10168 10174 10180 10188 10197 10207 10214 10223 10231 10239 10246 10256 10264 10271 10276 10282 10289 10296 10301 10306 10311
10096 10093 10091 10089 10088 10087 10087 10087 10088 10088 10089 10091 10093 10096 10100 10103 10106 10109 10112 10117 10123 10130 10137 10144 10151 10159 10164 10170 10176 10184 10191 10200 10208 10217 10224 10231 10238 10245 10250 10257 10264 10269 10274